Date,TemperatureHighF,TemperatureAvgF,TemperatureLowF,DewpointHighF,DewpointAvgF,DewpointLowF,HumidityHigh,HumidityAvg,HumidityLow,PressureMaxIn,PressureMinIn,WindSpeedMaxMPH,WindSpeedAvgMPH,GustSpeedMaxMPH,PrecipitationSumIn
2013-8-1,70,53,40,52,44,37,91,73,36,32.02,31.93,15,2,15,0.06
2013-8-2,78,60,42,49,43,35,99,61,24,31.96,31.89,15,3,15,0.00
2013-8-3,78,57,43,48,43,36,93,64,24,32.02,31.94,14,2,14,0.00
2013-8-4,76,55,40,56,45,34,99,74,24,32.02,31.96,16,2,16,0.14
2013-8-5,74,54,40,51,46,7,99,77,33,32.00,31.38,14,3,14,0.08
2013-8-6,74,53,41,50,45,37,99,79,29,31.98,31.89,15,2,15,0.14
2013-8-7,57,47,42,50,44,-8,99,90,60,31.96,31.54,10,1,12,0.38
2013-8-8,68,50,38,48,41,34,99,77,34,31.96,31.87,15,3,15,0.02
2013-8-9,66,50,36,47,41,35,99,74,37,32.01,31.92,12,3,12,0.02
2013-8-10,72,55,35,46,36,11,99,57,16,32.02,31.71,22,4,22,0.00
2013-8-11,73,54,38,44,37,24,99,59,16,32.00,31.92,11,2,11,0.00
2013-8-12,70,52,38,47,40,33,95,68,26,32.00,31.94,14,3,14,0.01
2013-8-13,71,52,34,45,37,27,99,64,20,32.02,31.96,18,3,18,0.05
2013-8-14,71,52,34,45,34,19,99,57,15,32.01,31.97,18,4,18,0.17
2013-8-15,76,56,34,40,29,18,88,45,13,32.01,31.96,17,4,17,0.00
2013-8-16,80,58,36,38,28,19,76,38,13,32.04,31.97,12,2,12,0.00
2013-8-17,77,59,39,39,30,21,73,39,14,32.04,31.94,11,2,11,0.00
2013-8-18,76,55,41,48,39,31,86,58,22,32.02,31.96,18,2,18,0.01
2013-8-19,81,58,38,49,40,29,99,60,15,32.02,31.94,15,3,15,0.02
2013-8-20,80,59,40,47,40,29,95,56,17,32.00,31.91,15,3,15,0.01
2013-8-21,78,58,43,50,43,34,92,64,23,32.02,31.93,15,2,15,0.05
2013-8-22,75,57,45,52,47,40,99,73,31,32.02,31.92,14,2,14,0.15
2013-8-23,53,50,46,49,48,46,99,92,85,32.00,31.96,8,3,9,0.00